| time (UTC) | temp C | wind direction | speed KPH | gust KPH | rain 1hr cm | rain 24hr cm | rain mn cm | humidity % | barometer mb |
| 20260503203033 | 29 | 316 | 3.2 | 14.5 | 0.00 | 0.00 | 0.00 | 27 | 1015.3 |
| 20260503201531 | 28 | 65 | 6.4 | 17.7 | 0.00 | 0.00 | 0.00 | 31 | 1015.3 |
| 20260503194532 | 27 | 327 | 16.1 | 33.8 | 0.00 | 0.00 | 0.00 | 36 | 1015.7 |
| 20260503193033 | 26 | 331 | 12.9 | 33.8 | 0.00 | 0.00 | 0.00 | 38 | 1015.9 |
| 20260503191535 | 26 | 352 | 12.9 | 29.0 | 0.00 | 0.00 | 0.00 | 38 | 1016.0 |
| 20260503190029 | 25 | 342 | 11.3 | 20.9 | 0.00 | 0.00 | 0.00 | 39 | 1016.2 |
| 20260503183153 | 24 | 342 | 12.9 | 33.8 | 0.00 | 0.00 | 0.00 | 41 | 1016.4 |
| 20260503181535 | 23 | 340 | 11.3 | 25.7 | 0.00 | 0.00 | 0.00 | 41 | 1016.6 |
| 20260503180036 | 23 | 338 | 14.5 | 29.0 | 0.00 | 0.00 | 0.00 | 44 | 1016.7 |
| 20260503174544 | 22 | 330 | 11.3 | 30.6 | 0.00 | 0.00 | 0.00 | 47 | 1016.9 |
| 20260503173037 | 21 | 342 | 6.4 | 17.7 | 0.00 | 0.00 | 0.00 | 53 | 1017.1 |
| 20260503171535 | 20 | 349 | 4.8 | 11.3 | 0.00 | 0.00 | 0.00 | 57 | 1017.2 |
| 20260503081532 | 10 | 121 | 4.8 | 6.4 | 0.00 | 0.00 | 0.00 | 87 | 1017.6 |
| 20260503080107 | 10 | 146 | 4.8 | 6.4 | 0.00 | 0.00 | 0.00 | 86 | 1017.6 |
| 20260503071535 | 12 | 156 | 4.8 | 6.4 | 0.00 | 0.00 | 0.00 | 84 | 1017.6 |
| 20260503054643 | 13 | 140 | 3.2 | 6.4 | 0.00 | 0.00 | 0.00 | 79 | 1017.3 |
| 20260503053035 | 13 | 156 | 0.0 | 3.2 | 0.00 | 0.00 | 0.00 | 79 | 1017.3 |
| 20260503050040 | 14 | 221 | 1.6 | 6.4 | 0.00 | 0.00 | 0.00 | 79 | 1017.2 |
| 20260503044530 | 14 | 163 | 3.2 | 6.4 | 0.00 | 0.00 | 0.00 | 78 | 1017.2 |
| 20260503043033 | 15 | 152 | 0.0 | 6.4 | 0.00 | 0.00 | 0.00 | 77 | 1017.2 |
| 20260503041645 | 15 | 154 | 1.6 | 6.4 | 0.00 | 0.00 | 0.00 | 77 | 1016.9 |
| 20260503040044 | 16 | 112 | 0.0 | 1.6 | 0.00 | 0.00 | 0.00 | 75 | 1016.7 |
| 20260503034538 | 16 | 137 | 0.0 | 4.8 | 0.00 | 0.00 | 0.00 | 72 | 1016.4 |
| 20260503033035 | 17 | 193 | 3.2 | 6.4 | 0.00 | 0.00 | 0.00 | 72 | 1016.0 |
| 20260503031535 | 17 | 179 | 3.2 | 6.4 | 0.00 | 0.00 | 0.00 | 72 | 1015.7 |
| 20260503030037 | 18 | 157 | 0.0 | 9.7 | 0.00 | 0.00 | 0.00 | 71 | 1015.5 |
| 20260503024652 | 19 | 179 | 1.6 | 6.4 | 0.00 | 0.00 | 0.00 | 71 | 1015.2 |
| 20260503023036 | 20 | 247 | 0.0 | 4.8 | 0.00 | 0.00 | 0.00 | 70 | 1015.1 |
| 20260503021535 | 20 | 247 | 0.0 | 6.4 | 0.00 | 0.00 | 0.00 | 66 | 1015.1 |
| 20260503014534 | 22 | 247 | 0.0 | 1.6 | 0.00 | 0.00 | 0.00 | 56 | 1014.9 |
| 20260503013033 | 23 | 247 | 0.0 | 6.4 | 0.00 | 0.00 | 0.00 | 51 | 1015.0 |
| 20260503011608 | 23 | 247 | 1.6 | 4.8 | 0.00 | 0.00 | 0.00 | 50 | 1015.0 |
| 20260503003032 | 26 | 181 | 1.6 | 8.0 | 0.00 | 0.00 | 0.00 | 38 | 1014.9 |
| 20260503001532 | 26 | 97 | 1.6 | 12.9 | 0.00 | 0.00 | 0.00 | 35 | 1014.9 |
| 20260503000037 | 26 | 30 | 3.2 | 12.9 | 0.00 | 0.00 | 0.00 | 34 | 1015.1 |
| 20260502234536 | 27 | 112 | 4.8 | 16.1 | 0.00 | 0.00 | 0.00 | 33 | 1015.2 |
| 20260502233037 | 27 | 108 | 8.0 | 25.7 | 0.00 | 0.00 | 0.00 | 33 | 1015.3 |
| 20260502224533 | 26 | 351 | 8.0 | 20.9 | 0.00 | 0.00 | 0.00 | 39 | 1015.8 |
| 20260502223031 | 26 | 329 | 4.8 | 11.3 | 0.00 | 0.00 | 0.00 | 40 | 1016.0 |
| 20260502220106 | 26 | 346 | 6.4 | 12.9 | 0.00 | 0.00 | 0.00 | 41 | 1016.3 |
| 20260502214606 | 25 | 334 | 6.4 | 14.5 | 0.00 | 0.00 | 0.00 | 44 | 1016.5 |
| 20260502213032 | 24 | 326 | 9.7 | 22.5 | 0.00 | 0.00 | 0.00 | 46 | 1016.7 |
| 20260502211535 | 23 | 329 | 14.5 | 32.2 | 0.00 | 0.00 | 0.00 | 50 | 1016.9 |
| 20260502210030 | 21 | 326 | 14.5 | 25.7 | 0.00 | 0.00 | 0.00 | 58 | 1017.0 |
| 20260502204535 | 22 | 322 | 8.0 | 17.7 | 0.00 | 0.00 | 0.00 | 58 | 1017.2 |